| time (UTC) | temp F | wind direction | speed MPH | gust MPH | rain 1hr in | rain 24hr in | rain mn in | humidity % | barometer mb |
| 20260510091537 | 48 | 181 | 1.0 | 2.0 | 0.00 | 0.00 | 0.00 | 99 | 985.7 |
| 20260510090909 | 48 | 193 | 1.0 | 2.0 | 0.00 | 0.00 | 0.00 | 99 | 986.1 |
| 20260510090341 | 48 | 181 | 2.0 | 2.0 | 0.00 | 0.00 | 0.00 | 99 | 986.1 |
| 20260510085716 | 48 | 188 | 1.0 | 1.0 | 0.00 | 0.00 | 0.00 | 99 | 985.7 |
| 20260510083948 | 49 | 196 | 2.0 | 2.0 | 0.00 | 0.00 | 0.00 | 99 | 985.7 |
| 20260510083352 | 49 | 184 | 0.0 | 1.0 | 0.00 | 0.00 | 0.00 | 99 | 985.7 |
| 20260510082744 | 49 | 172 | 1.0 | 2.0 | 0.00 | 0.00 | 0.00 | 99 | 985.7 |
| 20260510082119 | 48 | 133 | 1.0 | 1.0 | 0.00 | 0.00 | 0.00 | 99 | 985.7 |
| 20260510081549 | 48 | 188 | 0.0 | 2.0 | 0.00 | 0.00 | 0.00 | 99 | 985.7 |
| 20260510080918 | 48 | 201 | 1.0 | 1.0 | 0.00 | 0.00 | 0.00 | 99 | 985.7 |
| 20260510080327 | 48 | 118 | 1.0 | 2.0 | 0.00 | 0.00 | 0.00 | 99 | 985.7 |
| 20260510075750 | 48 | 187 | 2.0 | 3.0 | 0.00 | 0.00 | 0.00 | 99 | 985.7 |
| 20260510074542 | 48 | 196 | 2.0 | 2.0 | 0.00 | 0.00 | 0.00 | 99 | 985.7 |
| 20260510073942 | 49 | 220 | 1.0 | 2.0 | 0.00 | 0.00 | 0.00 | 99 | 985.4 |
| 20260510073347 | 49 | 165 | 1.0 | 2.0 | 0.00 | 0.00 | 0.00 | 99 | 985.7 |
| 20260510072734 | 49 | 173 | 1.0 | 1.0 | 0.00 | 0.00 | 0.00 | 99 | 985.4 |
| 20260510072126 | 48 | 204 | 2.0 | 3.0 | 0.00 | 0.00 | 0.00 | 99 | 985.1 |
| 20260510071546 | 49 | 164 | 1.0 | 2.0 | 0.00 | 0.00 | 0.00 | 99 | 985.4 |
| 20260510070925 | 49 | 175 | 2.0 | 2.0 | 0.00 | 0.00 | 0.00 | 99 | 985.4 |
| 20260510070312 | 49 | 153 | 0.0 | 3.0 | 0.00 | 0.00 | 0.00 | 99 | 985.1 |
| 20260510065734 | 48 | 175 | 2.0 | 2.0 | 0.00 | 0.00 | 0.00 | 99 | 985.1 |
| 20260510065141 | 48 | 188 | 1.0 | 1.0 | 0.00 | 0.00 | 0.00 | 99 | 985.1 |
| 20260510063923 | 49 | 180 | 2.0 | 3.0 | 0.00 | 0.00 | 0.00 | 99 | 985.4 |
| 20260510063330 | 49 | 104 | 1.0 | 2.0 | 0.00 | 0.00 | 0.00 | 99 | 985.4 |
| 20260510062709 | 49 | 208 | 0.0 | 2.0 | 0.00 | 0.00 | 0.00 | 99 | 985.4 |
| 20260510062146 | 49 | 174 | 0.0 | 1.0 | 0.00 | 0.00 | 0.00 | 99 | 985.4 |
| 20260510061534 | 49 | 120 | 0.0 | 2.0 | 0.00 | 0.00 | 0.00 | 99 | 985.1 |
| 20260510060949 | 49 | 210 | 0.0 | 0.0 | 0.00 | 0.00 | 0.00 | 99 | 985.4 |
| 20260510060341 | 49 | 210 | 0.0 | 1.0 | 0.00 | 0.00 | 0.00 | 99 | 985.4 |
| 20260510055725 | 49 | 191 | 1.0 | 2.0 | 0.00 | 0.00 | 0.00 | 99 | 985.4 |
| 20260510055118 | 49 | 223 | 0.0 | 1.0 | 0.00 | 0.00 | 0.00 | 99 | 985.7 |
| 20260510054538 | 49 | 207 | 0.0 | 2.0 | 0.00 | 0.00 | 0.00 | 99 | 985.7 |
| 20260510053314 | 50 | 167 | 0.0 | 1.0 | 0.00 | 0.00 | 0.00 | 99 | 985.4 |
| 20260510052149 | 49 | 190 | 1.0 | 2.0 | 0.00 | 0.00 | 0.00 | 99 | 985.7 |
| 20260510051548 | 50 | 192 | 1.0 | 1.0 | 0.00 | 0.00 | 0.00 | 99 | 985.4 |
| 20260510050912 | 50 | 182 | 0.0 | 0.0 | 0.00 | 0.00 | 0.00 | 99 | 985.4 |
| 20260510050332 | 50 | 182 | 0.0 | 0.0 | 0.00 | 0.00 | 0.00 | 99 | 985.4 |
| 20260510045721 | 50 | 182 | 1.0 | 1.0 | 0.00 | 0.00 | 0.00 | 99 | 985.4 |
| 20260510045110 | 50 | 182 | 0.0 | 1.0 | 0.00 | 0.00 | 0.00 | 99 | 985.4 |
| 20260510043931 | 50 | 185 | 2.0 | 2.0 | 0.00 | 0.00 | 0.00 | 99 | 985.4 |
| 20260510043338 | 50 | 181 | 1.0 | 1.0 | 0.00 | 0.00 | 0.00 | 99 | 985.1 |
| 20260510042711 | 51 | 168 | 1.0 | 2.0 | 0.00 | 0.00 | 0.00 | 99 | 985.4 |
| 20260510042145 | 51 | 176 | 0.0 | 1.0 | 0.00 | 0.00 | 0.00 | 99 | 985.4 |
| 20260510041533 | 51 | 176 | 0.0 | 1.0 | 0.00 | 0.00 | 0.00 | 99 | 985.7 |
| 20260510040924 | 51 | 185 | 0.0 | 1.0 | 0.00 | 0.00 | 0.00 | 99 | 985.7 |
| 20260510040343 | 51 | 185 | 0.0 | 1.0 | 0.00 | 0.00 | 0.00 | 99 | 985.4 |
| 20260510035747 | 51 | 185 | 0.0 | 0.0 | 0.00 | 0.00 | 0.00 | 99 | 985.4 |
| 20260510035123 | 51 | 184 | 0.0 | 1.0 | 0.00 | 0.00 | 0.00 | 99 | 985.4 |
| 20260510034541 | 51 | 184 | 0.0 | 1.0 | 0.00 | 0.00 | 0.00 | 99 | 985.4 |
| 20260510033910 | 52 | 189 | 1.0 | 1.0 | 0.00 | 0.00 | 0.00 | 99 | 985.1 |
| 20260510033316 | 52 | 176 | 0.0 | 0.0 | 0.00 | 0.00 | 0.00 | 99 | 985.1 |
| 20260510032752 | 52 | 176 | 0.0 | 1.0 | 0.00 | 0.00 | 0.00 | 99 | 985.1 |
| 20260510032147 | 52 | 178 | 1.0 | 2.0 | 0.00 | 0.00 | 0.00 | 99 | 985.1 |
| 20260510031524 | 52 | 184 | 2.0 | 2.0 | 0.00 | 0.00 | 0.00 | 99 | 985.1 |
| 20260510030919 | 52 | 188 | 0.0 | 2.0 | 0.00 | 0.00 | 0.00 | 99 | 985.1 |
| 20260510030328 | 53 | 171 | 2.0 | 3.0 | 0.00 | 0.00 | 0.00 | 99 | 985.1 |
| 20260510025732 | 53 | 179 | 1.0 | 2.0 | 0.00 | 0.00 | 0.00 | 99 | 985.1 |
| 20260510025123 | 53 | 193 | 1.0 | 2.0 | 0.00 | 0.00 | 0.00 | 99 | 985.1 |
| 20260510023940 | 53 | 192 | 0.0 | 1.0 | 0.00 | 0.00 | 0.00 | 99 | 985.1 |
| 20260510022739 | 53 | 209 | 0.0 | 0.0 | 0.00 | 0.00 | 0.00 | 98 | 984.7 |
| 20260510021510 | 54 | 191 | 2.0 | 2.0 | 0.00 | 0.00 | 0.00 | 98 | 984.7 |
| 20260510020952 | 54 | 202 | 0.0 | 0.0 | 0.00 | 0.00 | 0.00 | 97 | 984.7 |
| 20260510015740 | 54 | 202 | 0.0 | 1.0 | 0.00 | 0.00 | 0.00 | 97 | 984.0 |
| 20260510015143 | 55 | 201 | 0.0 | 1.0 | 0.00 | 0.00 | 0.00 | 97 | 984.4 |
| 20260510014511 | 55 | 205 | 0.0 | 0.0 | 0.00 | 0.00 | 0.00 | 96 | 984.0 |
| 20260510013946 | 55 | 204 | 0.0 | 1.0 | 0.00 | 0.00 | 0.00 | 96 | 984.0 |
| 20260510012725 | 55 | 204 | 0.0 | 1.0 | 0.00 | 0.00 | 0.00 | 95 | 984.0 |
| 20260510012131 | 56 | 175 | 0.0 | 0.0 | 0.00 | 0.00 | 0.00 | 95 | 983.7 |
| 20260510011556 | 56 | 228 | 0.0 | 0.0 | 0.00 | 0.00 | 0.00 | 94 | 983.7 |
| 20260510010951 | 56 | 196 | 0.0 | 0.0 | 0.00 | 0.00 | 0.00 | 94 | 983.4 |
| 20260510010348 | 57 | 202 | 0.0 | 2.0 | 0.00 | 0.00 | 0.00 | 93 | 983.4 |
| 20260510005143 | 57 | 183 | 0.0 | 0.0 | 0.00 | 0.00 | 0.00 | 92 | 983.0 |
| 20260510004550 | 58 | 184 | 0.0 | 1.0 | 0.00 | 0.00 | 0.00 | 91 | 983.0 |
| 20260510003307 | 59 | 111 | 0.0 | 1.0 | 0.00 | 0.00 | 0.00 | 89 | 982.7 |
| 20260510002716 | 59 | 236 | 0.0 | 0.0 | 0.00 | 0.00 | 0.00 | 88 | 983.0 |
| 20260510001511 | 60 | 215 | 0.0 | 0.0 | 0.00 | 0.00 | 0.00 | 85 | 983.0 |
| 20260510000943 | 60 | 200 | 0.0 | 0.0 | 0.00 | 0.00 | 0.00 | 85 | 982.7 |
| 20260510000349 | 61 | 190 | 2.0 | 2.0 | 0.00 | 0.00 | 0.00 | 84 | 982.7 |
| 20260509235710 | 61 | 300 | 0.0 | 0.0 | 0.00 | 0.00 | 0.00 | 83 | 982.3 |
| 20260509235126 | 62 | 7 | 0.0 | 0.0 | 0.00 | 0.00 | 0.00 | 82 | |
| 20260509234543 | 62 | 254 | 0.0 | 0.0 | 0.00 | 0.00 | 0.00 | 80 | 982.3 |
| 20260509233949 | 62 | 266 | 0.0 | 0.0 | 0.00 | 0.00 | 0.00 | 80 | 982.3 |
| 20260509233339 | 63 | 262 | 1.0 | 1.0 | 0.00 | 0.00 | 0.00 | 77 | 982.3 |
| 20260509232130 | 64 | 267 | 0.0 | 1.0 | 0.00 | 0.00 | 0.00 | 75 | 982.3 |
| 20260509231509 | 65 | 306 | 0.0 | 1.0 | 0.00 | 0.00 | 0.00 | 74 | 982.3 |
| 20260509230951 | 66 | 309 | 1.0 | 1.0 | 0.00 | 0.00 | 0.00 | 71 | 982.3 |
| 20260509230332 | 66 | 306 | 0.0 | 1.0 | 0.00 | 0.00 | 0.00 | 70 | 982.3 |
| 20260509225146 | 68 | 66 | 3.0 | 3.0 | 0.00 | 0.00 | 0.00 | 66 | |
| 20260509224535 | 69 | 41 | 2.0 | 9.0 | 0.00 | 0.00 | 0.00 | 57 | 982.3 |
| 20260509223928 | 68 | 85 | 0.0 | 2.0 | 0.00 | 0.00 | 0.00 | 59 | 982.3 |
| 20260509223343 | 70 | 41 | 0.0 | 1.0 | 0.00 | 0.00 | 0.00 | 61 | 982.3 |
| 20260509222130 | 70 | 75 | 3.0 | 4.0 | 0.00 | 0.00 | 0.00 | 58 | 982.3 |
| 20260509220918 | 72 | 167 | 1.0 | 2.0 | 0.00 | 0.00 | 0.00 | 56 | 982.3 |
| 20260509220325 | 71 | 298 | 0.0 | 1.0 | 0.00 | 0.00 | 0.00 | 57 | 982.3 |
| 20260509215723 | 71 | 208 | 2.0 | 2.0 | 0.00 | 0.00 | 0.00 | 54 | 982.7 |
| 20260509215134 | 70 | 237 | 1.0 | 4.0 | 0.00 | 0.00 | 0.00 | 54 | 982.3 |
| 20260509214520 | 70 | 189 | 1.0 | 4.0 | 0.00 | 0.00 | 0.00 | 55 | 982.3 |
| 20260509213335 | 71 | 336 | 0.0 | 0.0 | 0.00 | 0.00 | 0.00 | 58 | 982.3 |
| 20260509212739 | 70 | 348 | 0.0 | 1.0 | 0.00 | 0.00 | 0.00 | 61 | 982.3 |
| 20260509212145 | 70 | 57 | 0.0 | 1.0 | 0.00 | 0.00 | 0.00 | 60 | 982.3 |
| 20260509211542 | 70 | 68 | 0.0 | 1.0 | 0.00 | 0.00 | 0.00 | 58 | 982.3 |
| 20260509210931 | 71 | 159 | 2.0 | 4.0 | 0.00 | 0.00 | 0.00 | 55 | 982.3 |
| 20260509210318 | 72 | 190 | 0.0 | 0.0 | 0.00 | 0.00 | 0.00 | 59 | 982.3 |
| 20260509205747 | 72 | 0 | 0.0 | 0.0 | 0.00 | 0.00 | 0.00 | 56 | 982.3 |
| 20260509205134 | 71 | 124 | 1.0 | 2.0 | 0.00 | 0.00 | 0.00 | 53 | 982.3 |
| 20260509204537 | 70 | 107 | 1.0 | 2.0 | 0.00 | 0.00 | 0.00 | 57 | 982.3 |
| 20260509203950 | 71 | 106 | 4.0 | 4.0 | 0.00 | 0.00 | 0.00 | 55 | 982.3 |
| 20260509203321 | 72 | 326 | 3.0 | 6.0 | 0.00 | 0.00 | 0.00 | 53 | 982.3 |
| 20260509202753 | 72 | 152 | 0.0 | 1.0 | 0.00 | 0.00 | 0.00 | 52 | |
| 20260509202126 | 72 | 66 | 0.0 | 2.0 | 0.00 | 0.00 | 0.00 | 54 | |
| 20260509201532 | 71 | 45 | 1.0 | 3.0 | 0.00 | 0.00 | 0.00 | 52 | |
| 20260509200939 | 71 | 83 | 1.0 | 7.0 | 0.00 | 0.00 | 0.00 | 53 | |
| 20260509200309 | 71 | 289 | 1.0 | 1.0 | 0.00 | 0.00 | 0.00 | 52 | |
| 20260509195125 | 72 | 301 | 3.0 | 6.0 | 0.00 | 0.00 | 0.00 | 49 | |
| 20260509193915 | 70 | 335 | 3.0 | 3.0 | 0.00 | 0.00 | 0.00 | 51 | |
| 20260509193337 | 70 | 25 | 1.0 | 2.0 | 0.00 | 0.00 | 0.00 | 58 | |
| 20260509192748 | 70 | 87 | 3.0 | 4.0 | 0.00 | 0.00 | 0.00 | 50 | 982.3 |
| 20260509191528 | 72 | 257 | 1.0 | 2.0 | 0.00 | 0.00 | 0.00 | 47 | |
| 20260509190313 | 72 | 18 | 2.0 | 4.0 | 0.00 | 0.00 | 0.00 | 48 | |
| 20260509185750 | 71 | 31 | 1.0 | 1.0 | 0.00 | 0.00 | 0.00 | 48 | |
| 20260509185114 | 71 | 0 | 2.0 | 3.0 | 0.00 | 0.00 | 0.00 | 50 | |
| 20260509184531 | 71 | 33 | 3.0 | 4.0 | 0.00 | 0.00 | 0.00 | 48 | |
| 20260509183936 | 72 | 337 | 0.0 | 1.0 | 0.00 | 0.00 | 0.00 | 55 | |
| 20260509183343 | 71 | 13 | 0.0 | 1.0 | 0.00 | 0.00 | 0.00 | 54 | |
| 20260509182727 | 71 | 143 | 0.0 | 4.0 | 0.00 | 0.00 | 0.00 | 51 | |
| 20260509182153 | 70 | 231 | 1.0 | 6.0 | 0.00 | 0.00 | 0.00 | 48 | |
| 20260509181515 | 70 | 156 | 1.0 | 3.0 | 0.00 | 0.00 | 0.00 | 48 | |
| 20260509180942 | 71 | 98 | 2.0 | 3.0 | 0.00 | 0.00 | 0.00 | 48 | |
| 20260509180315 | 70 | 21 | 0.0 | 1.0 | 0.00 | 0.00 | 0.00 | 49 | |
| 20260509175737 | 69 | 306 | 2.0 | 4.0 | 0.00 | 0.00 | 0.00 | 51 | |
| 20260509175152 | 71 | 49 | 1.0 | 4.0 | 0.00 | 0.00 | 0.00 | 47 | 982.3 |
| 20260509174526 | 71 | 54 | 1.0 | 4.0 | 0.00 | 0.00 | 0.00 | 52 | 982.3 |
| 20260509173311 | 69 | 325 | 0.0 | 1.0 | 0.00 | 0.00 | 0.00 | 50 | 982.3 |
| 20260509172726 | 68 | 32 | 4.0 | 7.0 | 0.00 | 0.00 | 0.00 | 52 | 982.3 |
| 20260509171510 | 70 | 352 | 4.0 | 6.0 | 0.00 | 0.00 | 0.00 | 53 | 982.7 |
| 20260509170921 | 69 | 59 | 2.0 | 8.0 | 0.00 | 0.00 | 0.00 | 53 | 982.3 |
| 20260509170323 | 70 | 98 | 1.0 | 2.0 | 0.00 | 0.00 | 0.00 | 54 | 982.7 |
| 20260509165719 | 68 | 7 | 2.0 | 2.0 | 0.00 | 0.00 | 0.00 | 56 | 982.7 |
| 20260509165133 | 67 | 326 | 0.0 | 4.0 | 0.00 | 0.00 | 0.00 | 57 | 982.7 |
| 20260509164539 | 67 | 70 | 2.0 | 3.0 | 0.00 | 0.00 | 0.00 | 56 | 983.0 |
| 20260509163934 | 66 | 109 | 3.0 | 6.0 | 0.00 | 0.00 | 0.00 | 57 | 983.0 |
| 20260509162115 | 66 | 309 | 6.0 | 10.0 | 0.00 | 0.00 | 0.00 | 59 | 983.0 |
| 20260509161540 | 66 | 359 | 2.0 | 6.0 | 0.00 | 0.00 | 0.00 | 58 | 982.7 |
| 20260509160930 | 66 | 9 | 4.0 | 6.0 | 0.00 | 0.00 | 0.00 | 59 | 983.0 |
| 20260509160345 | 68 | 113 | 2.0 | 6.0 | 0.00 | 0.00 | 0.00 | 59 | 982.7 |
| 20260509155716 | 67 | 109 | 3.0 | 6.0 | 0.00 | 0.00 | 0.00 | 60 | 983.0 |
| 20260509154540 | 66 | 339 | 1.0 | 2.0 | 0.00 | 0.00 | 0.00 | 64 | 982.7 |
| 20260509153940 | 66 | 209 | 3.0 | 4.0 | 0.00 | 0.00 | 0.00 | 61 | 982.3 |
| 20260509153324 | 66 | 306 | 0.0 | 2.0 | 0.00 | 0.00 | 0.00 | 60 | 982.7 |
| 20260509152128 | 65 | 13 | 1.0 | 2.0 | 0.00 | 0.00 | 0.00 | 70 | 982.3 |
| 20260509150915 | 66 | 16 | 5.0 | 9.0 | 0.00 | 0.00 | 0.00 | 62 | 982.7 |
| 20260509150315 | 66 | 184 | 1.0 | 8.0 | 0.00 | 0.00 | 0.00 | 58 | 982.7 |
| 20260509145741 | 67 | 339 | 1.0 | 4.0 | 0.00 | 0.00 | 0.00 | 59 | 982.3 |
| 20260509145127 | 67 | 80 | 2.0 | 8.0 | 0.00 | 0.00 | 0.00 | 60 | 982.7 |
| 20260509144508 | 67 | 13 | 1.0 | 2.0 | 0.00 | 0.00 | 0.00 | 69 | 982.7 |
| 20260509143907 | 67 | 5 | 0.0 | 3.0 | 0.00 | 0.00 | 0.00 | 61 | 982.3 |
| 20260509142747 | 64 | 43 | 1.0 | 2.0 | 0.00 | 0.00 | 0.00 | 67 | 983.0 |
| 20260509141517 | 63 | 51 | 2.0 | 3.0 | 0.00 | 0.00 | 0.00 | 74 | 982.3 |
| 20260509140924 | 62 | 74 | 0.0 | 1.0 | 0.00 | 0.00 | 0.00 | 74 | 982.3 |
| 20260509140344 | 61 | 65 | 2.0 | 3.0 | 0.00 | 0.00 | 0.00 | 75 | 982.3 |
| 20260509135710 | 60 | 65 | 2.0 | 3.0 | 0.00 | 0.00 | 0.00 | 74 | 982.3 |
| 20260509135112 | 59 | 82 | 1.0 | 4.0 | 0.00 | 0.00 | 0.00 | 76 | 982.7 |
| 20260509134545 | 60 | 77 | 0.0 | 1.0 | 0.00 | 0.00 | 0.00 | 77 | 982.3 |
| 20260509133914 | 60 | 129 | 1.0 | 2.0 | 0.00 | 0.00 | 0.00 | 74 | 982.3 |
| 20260509132743 | 59 | 35 | 1.0 | 1.0 | 0.00 | 0.00 | 0.00 | 76 | 982.7 |
| 20260509132132 | 57 | 28 | 0.0 | 3.0 | 0.00 | 0.00 | 0.00 | 79 | 982.3 |
| 20260509131511 | 56 | 98 | 2.0 | 2.0 | 0.00 | 0.00 | 0.00 | 79 | 983.0 |
| 20260509130917 | 55 | 164 | 0.0 | 2.0 | 0.00 | 0.00 | 0.00 | 81 | 982.7 |
| 20260509130311 | 53 | 327 | 0.0 | 3.0 | 0.00 | 0.00 | 0.00 | 82 | 983.0 |
| 20260509125721 | 52 | 82 | 3.0 | 6.0 | 0.00 | 0.00 | 0.00 | 82 | 982.7 |
| 20260509125123 | 52 | 90 | 1.0 | 4.0 | 0.00 | 0.00 | 0.00 | 83 | 982.7 |
| 20260509123935 | 52 | 107 | 1.0 | 2.0 | 0.00 | 0.00 | 0.00 | 85 | 983.0 |
| 20260509123351 | 50 | 127 | 1.0 | 3.0 | 0.00 | 0.00 | 0.00 | 87 | 983.4 |
| 20260509122746 | 49 | 36 | 1.0 | 4.0 | 0.00 | 0.00 | 0.00 | 89 | 983.0 |
| 20260509122142 | 49 | 94 | 1.0 | 1.0 | 0.00 | 0.00 | 0.00 | 90 | 983.0 |
| 20260509121510 | 48 | 97 | 1.0 | 3.0 | 0.00 | 0.00 | 0.00 | 90 | 983.4 |
| 20260509120914 | 48 | 98 | 2.0 | 3.0 | 0.00 | 0.00 | 0.00 | 90 | 983.4 |
| 20260509120320 | 48 | 126 | 2.0 | 4.0 | 0.00 | 0.00 | 0.00 | 90 | 983.7 |
| 20260509115739 | 48 | 87 | 1.0 | 3.0 | 0.00 | 0.00 | 0.00 | 90 | 983.7 |
| 20260509115122 | 48 | 100 | 1.0 | 2.0 | 0.00 | 0.00 | 0.00 | 91 | 983.7 |
| 20260509113926 | 48 | 104 | 2.0 | 3.0 | 0.00 | 0.00 | 0.00 | 91 | 983.7 |
| 20260509113325 | 47 | 103 | 2.0 | 4.0 | 0.00 | 0.00 | 0.00 | 91 | 983.4 |
| 20260509112131 | 47 | 92 | 1.0 | 2.0 | 0.00 | 0.00 | 0.00 | 91 | 983.7 |
| 20260509110934 | 47 | 121 | 1.0 | 3.0 | 0.00 | 0.00 | 0.00 | 92 | 983.4 |
| 20260509110313 | 47 | 108 | 0.0 | 1.0 | 0.00 | 0.00 | 0.00 | 92 | 983.7 |
| 20260509104545 | 47 | 111 | 0.0 | 1.0 | 0.00 | 0.00 | 0.00 | 92 | 983.4 |
| 20260509103940 | 47 | 35 | 0.0 | 2.0 | 0.00 | 0.00 | 0.00 | 91 | 983.4 |
| 20260509103314 | 47 | 195 | 1.0 | 1.0 | 0.00 | 0.00 | 0.00 | 92 | 983.4 |
| 20260509102735 | 47 | 171 | 0.0 | 1.0 | 0.00 | 0.00 | 0.00 | 92 | 983.4 |
| 20260509102123 | 47 | 108 | 1.0 | 2.0 | 0.00 | 0.00 | 0.00 | 93 | 983.4 |
| 20260509101514 | 47 | 81 | 0.0 | 2.0 | 0.00 | 0.00 | 0.00 | 93 | 983.4 |
| 20260509100920 | 47 | 124 | 2.0 | 2.0 | 0.00 | 0.00 | 0.00 | 93 | 983.4 |
| 20260509100325 | 47 | 71 | 0.0 | 1.0 | 0.00 | 0.00 | 0.00 | 92 | 983.4 |
| 20260509095736 | 47 | 161 | 1.0 | 1.0 | 0.00 | 0.00 | 0.00 | 93 | 983.4 |
| 20260509095147 | 47 | 149 | 2.0 | 2.0 | 0.00 | 0.00 | 0.00 | 93 | 983.4 |
| 20260509094533 | 47 | 179 | 0.0 | 2.0 | 0.00 | 0.00 | 0.00 | 93 | 983.4 |
| 20260509093330 | 47 | 181 | 0.0 | 1.0 | 0.00 | 0.00 | 0.00 | 93 | 983.4 |
| 20260509092117 | 47 | 144 | 0.0 | 2.0 | 0.00 | 0.00 | 0.00 | 92 | 983.4 |